KE0TRL Weather Reports


Display with metric or nautical units.
time (UTC)temp
F
wind
direction
speed
MPH
gust
MPH
rain 1hr
in
rain 24hr
in
rain mn
in
humidity
%
barometer
mb
20260906104502 77 203 0.0 0.0 0.00 0.00 0.00 85 1012.5
20260906103402 77 225 0.0 0.0 0.00 0.00 0.00 85 1012.5
20260906101902 77 225 0.0 0.0 0.00 0.00 0.00 85 1012.2
20260906100802 77 158 0.0 0.0 0.00 0.00 0.00 85 1012.5
20260906094602 78 158 0.0 0.0 0.00 0.00 0.00 83 1012.5
20260906093002 78 158 0.0 0.0 0.00 0.00 0.00 81 1012.5
20260906091402 79 225 0.0 0.0 0.00 0.00 0.00 81 1012.5
20260906090302 79 180 0.0 0.0 0.00 0.00 0.00 81 1012.5
20260906085002 79 270 0.0 0.0 0.00 0.00 0.00 81 1012.9
20260906083802 79 225 0.0 0.0 0.00 0.00 0.00 81 1012.5
20260906082602 79 225 0.0 0.0 0.00 0.00 0.00 81 1012.5
20260906081502 79 203 0.0 1.0 0.00 0.00 0.00 81 1012.5
20260906080402 79 203 0.0 1.0 0.00 0.00 0.00 81 1012.5
20260906074103 80 225 0.0 2.0 0.00 0.00 0.00 81 1012.2
20260906072802 80 270 0.0 3.0 0.00 0.00 0.00 81 1012.2
20260906071602 80 180 0.0 1.0 0.00 0.00 0.00 81 1012.5
20260906065202 80 248 0.0 2.0 0.00 0.00 0.00 81 1012.5
20260906064102 80 180 2.0 2.0 0.00 0.00 0.00 81 1012.5
20260906063002 80 248 0.0 3.0 0.00 0.00 0.00 81 1012.5
20260906061902 81 180 0.0 0.0 0.00 0.00 0.00 81 1012.9
20260906054402 81 225 0.0 1.0 0.00 0.00 0.00 80 1012.9
20260906053401 81 248 1.0 1.0 0.00 0.00 0.00 80 1012.5
20260906052305 81 270 1.0 2.0 0.00 0.00 0.00 80 1012.5
20260906051202 82 225 3.0 3.0 0.00 0.00 0.00 80 1012.5
20260906045902 82 225 1.0 2.0 0.00 0.00 0.00 80 1012.9
20260906044803 82 270 1.0 2.0 0.00 0.00 0.00 79 1012.9
20260906043702 82 248 1.0 2.0 0.00 0.00 0.00 78 1012.9
20260906042604 82 225 1.0 2.0 0.00 0.00 0.00 78 1012.9
20260906041602 82 248 0.0 2.0 0.00 0.00 0.00 78 1012.9
20260906040502 83 225 0.0 2.0 0.00 0.00 0.00 78 1012.9
20260906035402 83 225 0.0 2.0 0.00 0.00 0.00 78 1012.9
20260906034302 83 270 0.0 0.0 0.00 0.00 0.00 78 1012.9
20260906031803 83 203 0.0 0.0 0.00 0.00 0.00 78 1012.5
20260906030802 83 248 0.0 0.0 0.00 0.00 0.00 76 1012.5
20260906025702 84 248 1.0 2.0 0.00 0.00 0.00 76 1012.5
20260906024602 84 225 2.0 2.0 0.00 0.00 0.00 76 1012.2
20260906023503 84 180 1.0 1.0 0.00 0.00 0.00 76 1011.5
20260906022402 84 270 1.0 2.0 0.00 0.00 0.00 76 1011.9
20260906021202 84 270 0.0 0.0 0.00 0.00 0.00 75 1011.5
20260906020103 85 180 1.0 2.0 0.00 0.00 0.00 75 1011.5
20260906015002 85 248 2.0 2.0 0.00 0.00 0.00 75 1011.5
20260906013902 85 225 2.0 2.0 0.00 0.00 0.00 74 1011.2
20260906012702 86 203 0.0 1.0 0.00 0.00 0.00 73 1011.2
20260906010503 87 225 0.0 1.0 0.00 0.00 0.00 70 1010.8
20260906004203 88 203 2.0 2.0 0.00 0.00 0.00 68 1010.8
20260906003102 89 225 1.0 2.0 0.00 0.00 0.00 66 1011.2
20260906001902 89 180 0.0 1.0 0.00 0.00 0.00 65 1010.8
20260906000802 90 45 2.0 5.0 0.00 0.00 0.00 65 1010.8
20260905235602 91 0 1.0 2.0 0.00 0.00 0.00 63 1010.5
20260905234502 91 180 2.0 3.0 0.00 0.00 0.00 61 1010.5
20260905233402 92 158 1.0 3.0 0.00 0.00 0.00 61 1010.5
20260905232305 93 203 1.0 1.0 0.00 0.00 0.00 60 1010.5
20260905231103 93 203 2.0 3.0 0.00 0.00 0.00 60 1010.8
20260905230003 95 203 0.0 1.0 0.00 0.00 0.00 59 1010.8
20260905224802 95 270 1.0 2.0 0.00 0.00 0.00 58 1010.5
20260905223602 95 113 3.0 3.0 0.00 0.00 0.00 56 1010.5
20260905222502 95 180 1.0 2.0 0.00 0.00 0.00 55 1010.5
20260905221403 95 158 1.0 3.0 0.00 0.00 0.00 55 1010.2
20260905220202 94 180 2.0 4.0 0.00 0.00 0.00 56 1009.8
20260905215103 94 180 2.0 5.0 0.00 0.00 0.00 55 1010.2
20260905214003 95 45 5.0 6.0 0.00 0.00 0.00 55 1010.2
20260905211702 93 270 2.0 2.0 0.00 0.00 0.00 56 1010.5
20260905205502 92 225 2.0 4.0 0.00 0.00 0.00 55 1010.8
20260905204402 93 270 1.0 3.0 0.00 0.00 0.00 55 1011.2
20260905203202 92 180 3.0 4.0 0.00 0.00 0.00 55 1011.2
20260905202102 91 225 2.0 4.0 0.00 0.00 0.00 56 1011.5
20260905201002 91 293 3.0 4.0 0.00 0.00 0.00 55 1011.9
20260905195902 91 270 3.0 5.0 0.00 0.00 0.00 56 1012.2
20260905194702 90 248 2.0 5.0 0.00 0.00 0.00 59 1012.5
20260905192402 89 225 3.0 5.0 0.00 0.00 0.00 58 1012.5
20260905190202 89 248 3.0 4.0 0.00 0.00 0.00 59 1013.2
20260905185102 88 225 5.0 8.0 0.00 0.00 0.00 63 1013.2
20260905184002 88 270 3.0 6.0 0.00 0.00 0.00 63 1013.5
20260905182902 88 270 3.0 4.0 0.00 0.00 0.00 66 1013.5
20260905181702 88 270 4.0 4.0 0.00 0.00 0.00 68 1013.5
20260905180602 86 270 2.0 5.0 0.00 0.00 0.00 70 1013.9
20260905175502 86 0 10.0 10.0 0.00 0.00 0.00 71 1013.9
20260905174402 85 248 2.0 7.0 0.00 0.00 0.00 73 1013.9
20260905173303 85 270 4.0 7.0 0.00 0.00 0.00 74 1013.9
20260905172202 84 293 7.0 10.0 0.00 0.00 0.00 75 1013.9
20260905171102 84 135 4.0 6.0 0.00 0.00 0.00 74 1013.9
20260905170003 85 180 10.0 10.0 0.00 0.00 0.00 73 1013.9
20260905165003 85 225 4.0 6.0 0.00 0.00 0.00 73 1013.9
20260905163902 85 293 4.0 5.0 0.00 0.00 0.00 71 1014.2
20260905162902 84 248 3.0 4.0 0.00 0.00 0.00 74 1013.9
20260905160702 84 203 4.0 6.0 0.00 0.00 0.00 75 1013.9
20260905155602 85 203 2.0 3.0 0.00 0.00 0.00 70 1013.5
20260905154402 84 248 2.0 4.0 0.00 0.00 0.00 75 1013.2
20260905153302 84 225 4.0 4.0 0.00 0.00 0.00 73 1013.5
20260905152302 84 225 2.0 3.0 0.00 0.00 0.00 74 1013.2
20260905143502 83 203 3.0 3.0 0.00 0.00 0.00 74 1012.5
20260905142402 83 225 0.0 1.0 0.00 0.00 0.00 75 1012.2
20260905141302 83 270 2.0 2.0 0.00 0.00 0.00 75 1012.2
20260905140202 82 90 0.0 0.0 0.00 0.00 0.00 75 1012.2
20260905135102 81 158 0.0 2.0 0.00 0.00 0.00 78 1011.5
20260905134003 79 203 0.0 0.0 0.00 0.00 0.00 81 1011.9
20260905132902 78 225 0.0 0.0 0.00 0.00 0.00 81 1012.2
20260905131803 77 203 0.0 0.0 0.00 0.00 0.00 81 1011.9
20260905130703 76 225 0.0 0.0 0.00 0.00 0.00 83 1011.5
20260905125702 75 248 0.0 0.0 0.00 0.00 0.00 83 1011.5
20260905124502 75 248 0.0 0.0 0.00 0.00 0.00 83 1011.5
20260905123302 75 203 0.0 0.0 0.00 0.00 0.00 83 1011.2
20260905122203 75 203 0.0 0.0 0.00 0.00 0.00 83 1011.2
20260905121102 75 248 0.0 0.0 0.00 0.00 0.00 81 1011.2
20260905115702 75 270 0.0 0.0 0.00 0.00 0.00 81 1010.8
20260905114602 75 180 0.0 0.0 0.00 0.00 0.00 83 1010.5
20260905113202 75 248 0.0 0.0 0.00 0.00 0.00 83 1011.2
20260905105802 76 180 0.0 0.0 0.00 0.00 0.00 81 1010.5